When you browse on this site, cookies collect data to enhance your experience and personalize the content and advertising you see.
Visit our Privacy Policy to learn more. By continuing to use the site, you agree to this use of cookies and data.
  • In Italy
  • List of Countries
  • For 7 days
  • Water Temperature
  • Satellite Maps
  • Weather Map
  • Weather Widgets
  • user-avatar
    Login

    Hourly Weather Faro

    Today, 22 January, Tuesday

    Time Temperature Precipitation Wind Pressure Humidity
    00:00 +6°C° 0 mm 4 mps 767 mmHg 83%
    01:00 +5°C° 0 mm 4 mps 766 mmHg 85%
    02:00 +5°C° 0 mm 4 mps 766 mmHg 86%
    03:00 +5°C° 0 mm 4 mps 766 mmHg 88%
    04:00 +4°C° 0 mm 4 mps 766 mmHg 89%
    05:00 +4°C° 0 mm 4 mps 766 mmHg 90%
    06:00 +5°C° 0 mm 5 mps 766 mmHg 89%
    07:00 +6°C° 0 mm 5 mps 766 mmHg 88%
    08:00 +7°C° 0 mm 5 mps 766 mmHg 86%
    09:00 +9°C° 0 mm 5 mps 766 mmHg 79%
    10:00 +11°C° 0 mm 6 mps 766 mmHg 71%
    11:00 +13°C° 0 mm 6 mps 766 mmHg 63%
    12:00 +14°C° 0 mm 6 mps 766 mmHg 63%
    13:00 +14°C° 0 mm 7 mps 766 mmHg 63%
    14:00 +14°C° 0 mm 7 mps 765 mmHg 63%
    15:00 +12°C° 0 mm 7 mps 765 mmHg 70%
    16:00 +11°C° 0 mm 7 mps 765 mmHg 76%
    17:00 +10°C° 0 mm 7 mps 765 mmHg 83%
    18:00 +11°C° 0 mm 7 mps 765 mmHg 85%
    19:00 +11°C° 0 mm 8 mps 765 mmHg 88%
    20:00 +12°C° 0 mm 8 mps 765 mmHg 90%
    21:00 +10°C° 0 mm 8 mps 765 mmHg 90%
    22:00 +9°C° 0 mm 8 mps 765 mmHg 89%
    23:00 +7°C° 0 mm 8 mps 765 mmHg 88%

    Tomorrow, 23 January, Wednesday

    Time Temperature Precipitation Wind Pressure Humidity
    00:00 +7°C° 0 mm 8 mps 765 mmHg 89%
    01:00 +7°C° 0 mm 8 mps 765 mmHg 89%
    02:00 +7°C° 0 mm 8 mps 765 mmHg 89%
    03:00 +7°C° 0 mm 8 mps 765 mmHg 90%
    04:00 +7°C° 0 mm 8 mps 765 mmHg 90%
    05:00 +8°C° 0 mm 7 mps 764 mmHg 91%
    06:00 +8°C° 0 mm 7 mps 765 mmHg 89%
    07:00 +9°C° 0 mm 7 mps 765 mmHg 87%
    08:00 +9°C° 0 mm 6 mps 765 mmHg 86%
    09:00 +11°C° 0 mm 6 mps 765 mmHg 78%
    10:00 +14°C° 0 mm 7 mps 765 mmHg 70%
    11:00 +15°C° 0 mm 7 mps 765 mmHg 62%
    12:00 +15°C° 0 mm 7 mps 764 mmHg 64%
    13:00 +15°C° 0 mm 7 mps 764 mmHg 65%
    14:00 +15°C° 0 mm 7 mps 763 mmHg 66%
    15:00 +14°C° 0 mm 7 mps 763 mmHg 71%
    16:00 +12°C° 0 mm 7 mps 763 mmHg 76%
    17:00 +11°C° 0 mm 7 mps 763 mmHg 80%
    18:00 +11°C° 0 mm 7 mps 763 mmHg 82%
    19:00 +10°C° 0 mm 7 mps 763 mmHg 84%
    20:00 +10°C° 0 mm 7 mps 764 mmHg 87%
    21:00 +10°C° 0 mm 6 mps 763 mmHg 89%
    22:00 +10°C° 0 mm 6 mps 763 mmHg 92%
    23:00 +11°C° 0 mm 6 mps 763 mmHg 95%

    Day after tomorrow, 24 January, Thursday

    Time Temperature Precipitation Wind Pressure Humidity
    00:00 +11°C° 0 mm 6 mps 763 mmHg 95%
    01:00 +11°C° 0 mm 6 mps 762 mmHg 94%
    02:00 +11°C° 0 mm 6 mps 762 mmHg 94%
    03:00 +11°C° 0 mm 6 mps 762 mmHg 94%
    04:00 +11°C° 0 mm 6 mps 761 mmHg 94%
    05:00 +11°C° 0 mm 6 mps 761 mmHg 94%
    06:00 +13°C° 0 mm 6 mps 761 mmHg 92%
    07:00 +13°C° 0 mm 6 mps 761 mmHg 90%
    08:00 +13°C° 0 mm 6 mps 762 mmHg 88%
    09:00 +15°C° 0 mm 6 mps 762 mmHg 82%
    10:00 +16°C° 0 mm 6 mps 762 mmHg 76%
    11:00 +17°C° 0 mm 6 mps 762 mmHg 70%
    12:00 +17°C° 0 mm 5 mps 761 mmHg 67%
    13:00 +19°C° 0 mm 4 mps 761 mmHg 64%
    14:00 +20°C° 0 mm 3 mps 760 mmHg 61%
    15:00 +18°C° 0 mm 3 mps 760 mmHg 68%
    16:00 +17°C° 0 mm 3 mps 760 mmHg 74%
    17:00 +14°C° 0 mm 3 mps 760 mmHg 81%
    18:00 +14°C° 0 mm 4 mps 761 mmHg 83%
    19:00 +13°C° 0 mm 4 mps 761 mmHg 85%
    20:00 +12°C° 0 mm 4 mps 762 mmHg 88%
    21:00 +12°C° 0 mm 4 mps 762 mmHg 89%
    22:00 +12°C° 0 mm 4 mps 762 mmHg 89%
    23:00 +11°C° 0 mm 4 mps 763 mmHg 90%

    25 January, Friday

    Time Temperature Precipitation Wind Pressure Humidity
    00:00 +11°C° 0 mm 4 mps 763 mmHg 89%
    01:00 +11°C° 0 mm 4 mps 762 mmHg 88%
    02:00 +9°C° 0 mm 5 mps 762 mmHg 87%
    03:00 +9°C° 0 mm 5 mps 762 mmHg 87%
    04:00 +8°C° 0 mm 5 mps 762 mmHg 86%
    05:00 +8°C° 0 mm 5 mps 763 mmHg 86%
    06:00 +9°C° 0 mm 5 mps 763 mmHg 82%
    07:00 +9°C° 0 mm 5 mps 764 mmHg 79%
    08:00 +10°C° 0 mm 5 mps 764 mmHg 75%
    09:00 +13°C° 0 mm 4 mps 764 mmHg 68%
    10:00 +16°C° 0 mm 3 mps 764 mmHg 60%
    11:00 +19°C° 0 mm 3 mps 765 mmHg 53%
    12:00 +19°C° 0 mm 2 mps 764 mmHg 52%
    13:00 +19°C° 0 mm 2 mps 764 mmHg 51%
    14:00 +21°C° 0 mm 1 mps 763 mmHg 50%
    15:00 +19°C° 0 mm 1 mps 764 mmHg 58%
    16:00 +16°C° 0 mm 1 mps 764 mmHg 66%
    17:00 +14°C° 0 mm 1 mps 764 mmHg 73%
    18:00 +14°C° 0 mm 1 mps 764 mmHg 76%
    19:00 +13°C° 0 mm 2 mps 765 mmHg 80%
    20:00 +12°C° 0 mm 2 mps 765 mmHg 83%
    21:00 +11°C° 0 mm 3 mps 765 mmHg 83%
    22:00 +11°C° 0 mm 3 mps 765 mmHg 83%
    23:00 +10°C° 0 mm 3 mps 765 mmHg 84%

    26 January, Saturday

    Time Temperature Precipitation Wind Pressure Humidity
    00:00 +10°C° 0 mm 3 mps 764 mmHg 83%
    01:00 +10°C° 0 mm 3 mps 764 mmHg 83%
    02:00 +10°C° 0 mm 2 mps 764 mmHg 83%
    03:00 +9°C° 0 mm 2 mps 764 mmHg 83%
    04:00 +9°C° 0 mm 3 mps 764 mmHg 84%
    05:00 +9°C° 0 mm 3 mps 764 mmHg 84%
    06:00 +9°C° 0 mm 3 mps 764 mmHg 81%
    07:00 +10°C° 0 mm 3 mps 764 mmHg 78%
    08:00 +11°C° 0 mm 3 mps 765 mmHg 75%
    09:00 +12°C° 0 mm 3 mps 765 mmHg 71%
    10:00 +14°C° 0 mm 3 mps 765 mmHg 66%
    11:00 +17°C° 0 mm 3 mps 765 mmHg 61%
    12:00 +17°C° 0 mm 4 mps 764 mmHg 59%
    13:00 +18°C° 0 mm 4 mps 764 mmHg 58%
    14:00 +17°C° 0 mm 5 mps 763 mmHg 56%
    15:00 +15°C° 0 mm 5 mps 763 mmHg 61%
    16:00 +14°C° 0 mm 6 mps 763 mmHg 67%
    17:00 +11°C° 0 mm 6 mps 763 mmHg 72%
    18:00 +11°C° 0 mm 7 mps 763 mmHg 75%
    19:00 +10°C° 0 mm 7 mps 764 mmHg 77%
    20:00 +10°C° 0 mm 8 mps 764 mmHg 80%
    21:00 +9°C° 0 mm 8 mps 764 mmHg 83%
    22:00 +9°C° 0 mm 8 mps 764 mmHg 86%
    23:00 +9°C° 0 mm 7 mps 764 mmHg 90%

    27 January, Sunday

    Time Temperature Precipitation Wind Pressure Humidity
    00:00 +7°C° 0 mm 8 mps 764 mmHg 87%
    01:00 +6°C° 0 mm 8 mps 764 mmHg 85%
    02:00 +6°C° 0 mm 8 mps 764 mmHg 82%
    03:00 +5°C° 0 mm 8 mps 764 mmHg 83%
    04:00 +5°C° 0 mm 8 mps 764 mmHg 84%
    05:00 +5°C° 0 mm 8 mps 764 mmHg 85%
    06:00 +5°C° 0 mm 8 mps 765 mmHg 79%
    07:00 +5°C° 0 mm 9 mps 765 mmHg 74%
    08:00 +6°C° 0 mm 9 mps 766 mmHg 69%
    09:00 +7°C° 0 mm 9 mps 766 mmHg 62%
    10:00 +10°C° 0 mm 8 mps 766 mmHg 56%
    11:00 +11°C° 0 mm 8 mps 766 mmHg 49%
    12:00 +12°C° 0 mm 7 mps 766 mmHg 47%
    13:00 +14°C° 0 mm 7 mps 765 mmHg 45%
    14:00 +14°C° 0 mm 7 mps 765 mmHg 43%
    15:00 +12°C° 0 mm 7 mps 765 mmHg 48%
    16:00 +11°C° 0 mm 7 mps 765 mmHg 53%
    17:00 +10°C° 0 mm 7 mps 765 mmHg 57%
    18:00 +9°C° 0 mm 7 mps 766 mmHg 61%
    19:00 +9°C° 0 mm 8 mps 766 mmHg 64%
    20:00 +7°C° 0 mm 9 mps 767 mmHg 68%
    21:00 +7°C° 0 mm 9 mps 767 mmHg 74%
    22:00 +7°C° 0 mm 8 mps 767 mmHg 81%
    23:00 +7°C° 0 mm 8 mps 766 mmHg 87%
    Show more